Weather History for KPIT - May, 2013

Change the Weather History Date:

Sunday, May 19, 2013

  Actual Average Record
Temperature  
Mean Temperature 68 °F 61 °F  
Max Temperature 77 °F 72 °F 93 °F (1877)
Min Temperature 59 °F 50 °F 31 °F (2002)
Degree Days  
Heating Degree Days 0 6  
Month to date heating degree days 87 145  
Since 1 July heating degree days 5481 5621  
Cooling Degree Days 3 1  
Month to date cooling degree days 21 18  
Year to date cooling degree days 38 28  
Growing Degree Days 18 (Base 50)    
Moisture  
Dew Point 59 °F    
Average Humidity 74    
Maximum Humidity 90    
Minimum Humidity 58    
Precipitation  
Precipitation 0.00 in 0.14 in 1.06 in (2000)
Month to date precipitation 1.06 2.28  
Year to date precipitation 11.07 13.43  
Snow  
Snow 0.00 in 0.00 in 0.00 in (2002)
Month to date snowfall 0.0 0.0  
Since 1 July snowfall 57.4 41.9  
Snow Depth 0.00 in    
Sea Level Pressure  
Sea Level Pressure 30.06 in    
Wind  
Wind Speed 8 mph (ESE)    
Max Wind Speed 13 mph    
Max Gust Speed 18 mph    
Visibility 10 miles    
Events      
T = Trace of Precipitation, MM = Missing Value Source: NWS Daily Summary

Daily Weather History Graph

Daily Weather History Graph

Search for Another Location

Airport or City:

Trip Planner

Search our weather history database for the weather conditions in past years. The results will help you decide how hot, cold, wet, or windy it might be!

Date:

Astronomy

May. 19, 2013 Rise Set
Actual Time 6:00 AM EDT 8:34 PM EDT
Civil Twilight 5:29 AM EDT 9:05 PM EDT
Nautical Twilight 4:50 AM EDT 9:45 PM EDT
Astronomical Twilight 4:06 AM EDT 10:29 PM EDT
Moon 2:35 PM EDT (5/19) 2:24 AM EDT (5/19)
Length of Visible Light 15h 36m
Length of Day
14h 33m
Waxing Gibbous, 65% of the Moon is Illuminated
May 19
Waxing Gibbous
May 25
Full
May 31
Last Quarter
Jun 8
New
Jun 16
First Quarter

Hourly Weather History & Observations

Time (EDT) Temp. Dew Point Humidity Pressure Visibility Wind Dir Wind Speed Gust Speed Precip Events Conditions
12:51 AM 66.0 °F 57.9 °F 75% 30.08 in 10.0 mi ESE 9.2 mph - N/A   Mostly Cloudy
1:51 AM 64.0 °F 57.0 °F 78% 30.08 in 10.0 mi ESE 6.9 mph - N/A   Scattered Clouds
2:51 AM 63.0 °F 57.0 °F 81% 30.07 in 10.0 mi East 6.9 mph - N/A   Scattered Clouds
3:51 AM 62.6 °F 57.2 °F 82% 30.07 in 10.0 mi ESE 6.9 mph - N/A   Scattered Clouds
4:51 AM 61.0 °F 57.0 °F 87% 30.07 in 10.0 mi ESE 5.8 mph - N/A   Scattered Clouds
5:51 AM 60.1 °F 55.9 °F 86% 30.09 in 8.0 mi East 3.5 mph - N/A   Mostly Cloudy
6:51 AM 60.1 °F 55.9 °F 86% 30.11 in 7.0 mi East 5.8 mph - N/A   Mostly Cloudy
7:51 AM 63.0 °F 57.0 °F 81% 30.12 in 8.0 mi ESE 8.1 mph - N/A   Mostly Cloudy
8:51 AM 64.9 °F 57.0 °F 75% 30.12 in 10.0 mi ESE 8.1 mph - N/A   Mostly Cloudy
9:51 AM 66.9 °F 57.9 °F 73% 30.12 in 10.0 mi ESE 8.1 mph - N/A   Overcast
10:51 AM 71.1 °F 59.0 °F 66% 30.10 in 10.0 mi ESE 9.2 mph - N/A   Mostly Cloudy
11:51 AM 73.0 °F 59.0 °F 61% 30.09 in 10.0 mi SE 10.4 mph - N/A   Mostly Cloudy
12:51 PM 73.9 °F 59.0 °F 59% 30.07 in 10.0 mi SSE 13.8 mph 17.3 mph N/A   Mostly Cloudy
1:51 PM 75.0 °F 60.1 °F 60% 30.06 in 10.0 mi SSE 6.9 mph - N/A   Mostly Cloudy
2:51 PM 75.0 °F 60.1 °F 60% 30.04 in 10.0 mi South 6.9 mph - N/A   Overcast
3:51 PM 75.0 °F 59.0 °F 57% 30.02 in 10.0 mi ESE 3.5 mph - N/A   Overcast
4:51 PM 75.0 °F 60.1 °F 60% 30.02 in 10.0 mi ESE 8.1 mph - N/A   Overcast
5:51 PM 75.0 °F 60.1 °F 60% 30.02 in 10.0 mi SE 5.8 mph - N/A   Overcast
6:51 PM 75.0 °F 61.0 °F 62% 30.00 in 10.0 mi ESE 6.9 mph - N/A   Overcast
7:51 PM 73.9 °F 61.0 °F 64% 30.00 in 10.0 mi East 9.2 mph - N/A   Mostly Cloudy
8:51 PM 72.0 °F 60.1 °F 66% 30.03 in 10.0 mi East 8.1 mph - N/A   Mostly Cloudy
9:51 PM 69.1 °F 59.0 °F 70% 30.05 in 10.0 mi ESE 11.5 mph - N/A   Scattered Clouds
10:51 PM 69.1 °F 59.0 °F 70% 30.06 in 10.0 mi SE 9.2 mph - N/A   Mostly Cloudy
11:51 PM 68.0 °F 60.1 °F 76% 30.04 in 10.0 mi SE 6.9 mph - N/A   Mostly Cloudy